This is the latest recevied weather packets stored in our database for station/object S57PNX-8. If no packets are shown the sender has not sent any weather packets the latest 10 day(s).
| Time | Temp. | Humidity | Pressure | Rain* | Wind** | Luminosity | Snow |
|---|---|---|---|---|---|---|---|
| 1788339702 | 20° C | 57% | 1026.5 hPa | - | - | - | - |
| 1788338803 | 19.44° C | 59% | 1026.3 hPa | - | - | - | - |
| 1788337904 | 18.89° C | 61% | 1026.1 hPa | - | - | - | - |
| 1788337005 | 18.33° C | 63% | 1026 hPa | - | - | - | - |
| 1788336106 | 18.33° C | 64% | 1026 hPa | - | - | - | - |
| 1788335207 | 17.78° C | 64% | 1025.9 hPa | - | - | - | - |
| 1788334308 | 17.78° C | 64% | 1025.8 hPa | - | - | - | - |
| 1788333409 | 17.78° C | 64% | 1025.7 hPa | - | - | - | - |
| 1788332510 | 17.78° C | 64% | 1025.6 hPa | - | - | - | - |
| 1788331611 | 17.22° C | 63% | 1025.6 hPa | - | - | - | - |
| 1788330711 | 17.22° C | 63% | 1025.5 hPa | - | - | - | - |
| 1788329812 | 17.22° C | 62% | 1025.4 hPa | - | - | - | - |
| 1788328913 | 17.22° C | 61% | 1025.6 hPa | - | - | - | - |
| 1788328014 | 17.22° C | 61% | 1025.5 hPa | - | - | - | - |
| 1788327115 | 17.22° C | 60% | 1025.4 hPa | - | - | - | - |
| 1788326768 | 17.22° C | 60% | 1025.3 hPa | - | - | - | - |
| 1788325888 | 17.22° C | 60% | 1025.3 hPa | - | - | - | - |
| 1788324969 | 17.22° C | 60% | 1025.3 hPa | - | - | - | - |
| 1788324070 | 17.22° C | 59% | 1025.3 hPa | - | - | - | - |
| 1788323171 | 17.22° C | 59% | 1025.4 hPa | - | - | - | - |
| 1788322272 | 17.22° C | 59% | 1025.4 hPa | - | - | - | - |
| 1788321372 | 17.22° C | 58% | 1025.3 hPa | - | - | - | - |
| 1788320473 | 17.78° C | 58% | 1025.3 hPa | - | - | - | - |
| 1788319574 | 17.78° C | 58% | 1025.4 hPa | - | - | - | - |
| 1788318674 | 17.78° C | 58% | 1025.4 hPa | - | - | - | - |
* Rain since midnight (hover to see other rain measurements)
** Current wind speed in m/s (hover to see current wind gust speed)